User: anonymous   Login
Location: Unspecified
(0.0000°N, 0.0000°E)
Time: 20:29:52
(UTC+00:00)
Language:

N. Korean satellite - Orbit

View from above orbital plane
View from above orbital plane
View from above satellite
View from above satellite

Ground track
Ground track

The orbit data is extracted from the following two-line orbital elements,

1 39026U 12072A   15026.19670095  .00005741  00000-0  27948-3 0  2402
2 39026 097.3017 062.6681 0049165 014.2833 345.9778 15.17674090117152
Epoch (UTC): 26 January 2015 04:43:14
Eccentricity: 0.0049165
inclination: 97.3017°
perigee height: 479 km
apogee height: 547 km
right ascension of ascending node: 62.6681°
argument of perigee: 14.2833°
revolutions per day: 15.17674090
mean anomaly at epoch: 345.9778°
orbit number at epoch: 11715

The dashed part of the orbit path shows where the satellite is in the earth's shadow,  

DLR